Regional Weather Roundup
Issued by NWS Albany, NY

Home | Current Version | Previous Version | Text Only | Print | Product List | Glossary On
Versions: 1 2 3 4 5 6 7 8 9 10 11 12 13 14 15 16 17 18 19 20 21 22 23 24 25 26 27 28 29 30 31 32 33 34 35 36 37 38 39 40 41 42 43 44 45 46 47 48 49 50
000
ASUS41 KALY 200910
RWRALY

NEW YORK STATE HOURLY WEATHER ROUNDUP
NATIONAL WEATHER SERVICE ALBANY NY
500 AM EDT MON OCT 20 2014

NOTE: "FAIR" INDICATES FEW OR NO CLOUDS BELOW 12,000 FEET WITH NO
SIGNIFICANT WEATHER AND/OR NO OBSTRUCTIONS TO VISIBILITY.

NYZ032-033-038>043-046>054-057>066-NYZ062>081-201000-
EAST


CITY           SKY/WX    TMP DP  RH WIND       PRES   REMARKS
ALBANY         PTCLDY    32  28  85 CALM      30.05R
GLENS FALLS    MOCLDY    30  26  85 CALM      30.03R
POUGHKEEPSIE   CLEAR     31  28  89 CALM      30.07R
NEWBURGH       CLEAR     36  28  75 CALM      30.07
MONTGOMERY     PTCLDY    35  28  75 W7        30.06S WCI  29
WHITE PLAINS   PTCLDY    38  30  73 W3        30.06R
ISLIP          PTCLDY    35  29  78 SW3       30.07R
NEW YORK CITY  MOCLDY    44  29  55 W9        30.09R
CENTRAL PARK   MOCLDY    43  29  57 VRB5      30.11R
$$

NYZ005>009-017-018-044>046-055-056-201000-
CENTRAL


CITY           SKY/WX    TMP DP  RH WIND       PRES   REMARKS
FULTON         MOCLDY    40  34  79 S9        29.99F WCI  34
SYRACUSE       MOCLDY    41  33  74 CALM      30.00F
ROME           CLOUDY    34  32  92 E6        30.03S WCI  29
ELMIRA         MOCLDY    32  31  96 CALM      30.03S
BINGHAMTON     CLOUDY    35  28  75 S5        30.00S WCI  31
MONTICELLO     PTCLDY    30  27  86 SW5       30.04R WCI  25
$$

NYZ026>034-041>043-201000-
NORTH


CITY           SKY/WX    TMP DP  RH WIND       PRES   REMARKS
WATERTOWN      CLOUDY    37  30  75 CALM      29.98F
FORT DRUM      NOT AVBL
MASSENA        PTCLDY    30  27  88 CALM      30.00F
SARANAC LAKE   PTCLDY    27  25  92 SW6       29.94R WCI  20
PLATTSBURGH    PTCLDY    30  28  92 W3        30.00R
$$

NYZ001>004-010>016-019>021-201000-
WEST


CITY           SKY/WX    TMP DP  RH WIND       PRES   REMARKS
NIAGARA FALLS  CLOUDY    43  39  86 SE3       29.94F
BUFFALO        CLOUDY    44  37  76 SE6       29.96F
DUNKIRK        MOCLDY    46  34  62 S16G22    29.96F
JAMESTOWN      CLOUDY    37  32  81 S6        29.98S WCI  33
WELLSVILLE     PTCLDY    38  30  73 W6        29.99S WCI  33
ROCHESTER      CLOUDY    42  35  76 SW6       29.98F
PENN YAN       CLOUDY    41  33  73 SW9       30.00S
$$

             KEY
       WCI = WIND CHILL INDEX
       VSB = VISIBILITY
       HX  = HEAT INDEX
$$


USA.gov is the U.S. government's official web portal to all federal, state and local government web resources and services.